Torna al catalogo

SL-16 R/B

AttivoLEO
NORAD 23705·ROCKET BODY·🇷🇺 Russia

Lanciato Oct 31, 1995 da Baikonur Cosmodrome

Loading…

Prossimi Passaggi (prossime 24 ore)

TLE

AggiornatoSource: Space-Track

Epoca: Sep 14, 2026, 09:14 UTC

1 23705U 95058B   26257.38484055 -.00000028  00000-0  10041-4 0  9994
2 23705  71.0208 144.0870 0013220 201.1382 158.9197 14.15513984594555

Traccia SL-16 R/B in tempo reale con AllMySat

Download on the App Store